This is the latest recevied weather packets stored in our database for station/object KR8N. If no packets are shown the sender has not sent any weather packets the latest 10 day(s).
| Time | Temp. | Humidity | Pressure | Rain* | Wind** | Luminosity | Snow |
|---|---|---|---|---|---|---|---|
| 1777719904 | 2.22° C | 95% | 1018.3 hPa | 0 mm | - | 29 W/m² | - |
| 1777719601 | 2.22° C | 95% | 1018.2 hPa | 0 mm | - | 21 W/m² | - |
| 1777719299 | 1.67° C | 95% | 1018.2 hPa | 0 mm | - | 19 W/m² | - |
| 1777718996 | 1.67° C | 95% | 1018.3 hPa | 0 mm | - | 12 W/m² | - |
| 1777718693 | 1.67° C | 95% | 1018 hPa | 0 mm | - | 8 W/m² | - |
| 1777718390 | 1.67° C | 95% | 1018.3 hPa | 0 mm | - | 8 W/m² | - |
| 1777718087 | 1.67° C | 95% | 1018.3 hPa | 0 mm | - | 4 W/m² | - |
| 1777717784 | 1.67° C | 95% | 1018.4 hPa | 0 mm | - | 2 W/m² | - |
| 1777717482 | 1.67° C | 95% | 1018.4 hPa | 0 mm | - | 2 W/m² | - |
| 1777717178 | 1.67° C | 95% | 1018.5 hPa | 0 mm | - | 1 W/m² | - |
| 1777716877 | 1.67° C | 94% | 1018.2 hPa | 0 mm | - | 0 W/m² | - |
| 1777716574 | 1.11° C | 94% | 1018.3 hPa | 0 mm | - | 0 W/m² | - |
| 1777716274 | 1.11° C | 94% | 1018.4 hPa | 0 mm | - | 0 W/m² | - |
| 1777715971 | 1.67° C | 94% | 1018.4 hPa | 0 mm | - | 0 W/m² | - |
| 1777715668 | 1.67° C | 94% | 1018.4 hPa | 0 mm | - | 0 W/m² | - |
| 1777715366 | 1.67° C | 93% | 1018.6 hPa | 0 mm | - | 0 W/m² | - |
| 1777715063 | 1.67° C | 93% | 1018.4 hPa | 0 mm | - | 0 W/m² | - |
| 1777714761 | 1.67° C | 93% | 1018.7 hPa | 0 mm | - | 0 W/m² | - |
| 1777714459 | 2.22° C | 93% | 1018.7 hPa | 0 mm | - | 0 W/m² | - |
| 1777714156 | 2.22° C | 93% | 1018.6 hPa | 0 mm | - | 0 W/m² | - |
| 1777713855 | 2.22° C | 93% | 1018.6 hPa | 0 mm | - | 0 W/m² | - |
| 1777713552 | 2.22° C | 93% | 1018.7 hPa | 0 mm | - | 0 W/m² | - |
| 1777713248 | 2.22° C | 93% | 1018.6 hPa | 0 mm | - | 0 W/m² | - |
| 1777712945 | 1.67° C | 92% | 1018.6 hPa | 0 mm | - | 0 W/m² | - |
| 1777712642 | 1.67° C | 92% | 1018.8 hPa | 0 mm | - | 0 W/m² | - |
* Rain latest hour (hover to see other rain measurements)
** Current wind speed in m/s (hover to see current wind gust speed)